Location: Home
(42.5358°N, 72.7383°W)
Time: 13:06:31
(UTC-05:00)

Explorer 11/Cluster Stage 4 - Pass Details

Date: 20 December 2025
Orbit: 463 x 1179 km, 28.8° (Epoch: 21 January)

Event Time Altitude Azimuth Distance (km) Brightness Sun altitude
Rises 16:58:15 0° 243° (WSW) 3,964 13.0 -6.9°
Reaches altitude 10° 17:01:26 10° 233° (SW) 3,056 11.2 -7.5°
Maximum altitude 17:07:47 28° 178° (S) 2,030 8.9 -8.5°
Drops below altitude 10° 17:14:07 10° 123° (ESE) 3,038 9.3 -9.6°
Sets 17:17:16 0° 112° (ESE) 3,937 9.7 -10.1°
Enters shadow 17:17:26 - 112° (ESE) 3,987 9.8 -10.2°
